Weather History for Warrensburg, MO

Change the Weather History Date:

Thursday, December 6, 2012

  Actual Average (KSZL) Record (KSZL)
Temperature  
Mean Temperature 47 °F -  
Max Temperature 53 °F 45 °F 66 °F (2001)
Min Temperature 41 °F 28 °F 9 °F (2013)
Degree Days  
Heating Degree Days 18    
Moisture  
Dew Point 40 °F    
Average Humidity 76    
Maximum Humidity 87    
Minimum Humidity 66    
Precipitation  
Precipitation 0.00 in - - ()
Sea Level Pressure  
Sea Level Pressure 29.91 in    
Wind  
Wind Speed 5 mph (East)    
Max Wind Speed 7 mph    
Max Gust Speed -    
Visibility 10 miles    
Events      
Averages and records for this station are not official NWS values.
T = Trace of Precipitation, MM = Missing Value Source: NWS Daily Summary

Daily Weather History Graph

Daily Weather History Graph

Search for Another Location

Airport:

Trip Planner

Search our weather history database for the weather conditions in past years. The results will help you decide how hot, cold, wet, or windy it might be!

Date:

Astronomy

Dec. 06, 2012 Rise Set
Actual Time 7:19 AM CST 4:53 PM CST
Civil Twilight 6:49 AM CST 5:22 PM CST
Nautical Twilight 6:16 AM CST 5:56 PM CST
Astronomical Twilight 5:44 AM CST 6:28 PM CST
Moon No Moon Rise 12:16 PM CST (12/6)
Length of Visible Light 10h 32m
Length of Day
9h 33m
Waning Gibbous, 49% of the Moon is Illuminated
Dec 6
Waning Gibbous
Dec 13
New
Dec 19
First Quarter
Dec 28
Full
Jan 4
Last Quarter

Hourly Weather History & Observations

Time (CST) Temp. Windchill Dew Point Humidity Pressure Visibility Wind Dir Wind Speed Gust Speed Precip Events Conditions
7:35 AM 41.0 °F 37.1 °F 32.0 °F 70% 29.98 in 10.0 mi SSE 5.8 mph - N/A   Clear
7:55 AM 41.0 °F 36.4 °F 33.8 °F 76% 29.97 in 10.0 mi SE 6.9 mph - N/A   Clear
8:15 AM 41.0 °F 36.4 °F 33.8 °F 76% 29.98 in 10.0 mi SE 6.9 mph - N/A   Clear
8:35 AM 41.0 °F 36.4 °F 33.8 °F 76% 29.98 in 10.0 mi SE 6.9 mph - N/A   Clear
8:55 AM 42.8 °F 38.6 °F 33.8 °F 70% 29.97 in 10.0 mi SE 6.9 mph - N/A   Clear
9:15 AM 42.8 °F 38.6 °F 33.8 °F 70% 29.97 in 10.0 mi SE 6.9 mph - N/A   Clear
9:35 AM 44.6 °F 41.4 °F 33.8 °F 66% 29.98 in 10.0 mi SE 5.8 mph - N/A   Clear
9:55 AM 44.6 °F 42.2 °F 35.6 °F 71% 29.98 in 10.0 mi SE 4.6 mph - N/A   Clear
10:15 AM 46.4 °F 45.2 °F 35.6 °F 66% 29.98 in 10.0 mi SE 3.5 mph - N/A   Clear
10:55 AM 46.4 °F 45.2 °F 37.4 °F 71% 29.97 in 10.0 mi SE 3.5 mph - N/A   Clear
11:15 AM 48.2 °F - 37.4 °F 66% 29.95 in 10.0 mi SE 6.9 mph - N/A   Clear
11:35 AM 50.0 °F - 39.2 °F 66% 29.94 in 10.0 mi SE 5.8 mph - N/A   Clear
11:55 AM 50.0 °F - 41.0 °F 71% 29.93 in 10.0 mi SE 4.6 mph - N/A   Scattered Clouds
12:15 PM 50.0 °F - 41.0 °F 71% 29.91 in 10.0 mi SE 5.8 mph - N/A   Scattered Clouds
12:35 PM 51.8 °F - 41.0 °F 67% 29.91 in 10.0 mi SSE 5.8 mph - N/A   Mostly Cloudy
12:55 PM 51.8 °F - 42.8 °F 71% 29.90 in 10.0 mi SE 6.9 mph - N/A   Mostly Cloudy
1:15 PM 51.8 °F - 41.0 °F 67% 29.90 in 10.0 mi SSE 6.9 mph - N/A   Mostly Cloudy
1:35 PM 51.8 °F - 42.8 °F 71% 29.89 in 10.0 mi SSE 5.8 mph - N/A   Overcast
1:55 PM 53.6 °F - 42.8 °F 67% 29.88 in 10.0 mi SSE 3.5 mph - N/A   Overcast
2:15 PM 53.6 °F - 42.8 °F 67% 29.87 in 10.0 mi East 3.5 mph - N/A   Scattered Clouds
2:35 PM 53.6 °F - 42.8 °F 67% 29.88 in 10.0 mi Calm Calm - N/A   Scattered Clouds
2:55 PM 53.6 °F - 42.8 °F 67% 29.88 in 10.0 mi Calm Calm - N/A   Clear
3:15 PM 53.6 °F - 42.8 °F 67% 29.87 in 10.0 mi Calm Calm - N/A   Clear
3:35 PM 53.6 °F - 42.8 °F 67% 29.88 in 10.0 mi Calm Calm - N/A   Mostly Cloudy
3:55 PM 51.8 °F - 42.8 °F 71% 29.88 in 10.0 mi Calm Calm - N/A   Overcast
4:15 PM 51.8 °F - 42.8 °F 71% 29.88 in 10.0 mi NNE 3.5 mph - N/A   Scattered Clouds
4:35 PM 50.0 °F - 42.8 °F 76% 29.89 in 10.0 mi Calm Calm - N/A   Clear
4:55 PM 50.0 °F - 41.0 °F 71% 29.88 in 10.0 mi NNE 3.5 mph - N/A   Clear
5:15 PM 48.2 °F - 41.0 °F 76% 29.88 in 10.0 mi NNE 4.6 mph - N/A   Clear
5:35 PM 48.2 °F - 41.0 °F 76% 29.89 in 10.0 mi NNE 3.5 mph - N/A   Clear
5:55 PM 48.2 °F - 41.0 °F 76% 29.89 in 10.0 mi North 3.5 mph - N/A   Clear
6:35 PM 46.4 °F 45.2 °F 41.0 °F 81% 29.89 in 10.0 mi NE 3.5 mph - N/A   Clear
6:55 PM 46.4 °F - 41.0 °F 81% 29.90 in 10.0 mi Calm Calm - N/A   Clear
7:15 PM 46.4 °F 44.3 °F 41.0 °F 81% 29.91 in 10.0 mi NW 4.6 mph - N/A   Clear
7:35 PM 44.6 °F 42.2 °F 41.0 °F 87% 29.91 in 10.0 mi NW 4.6 mph - N/A   Scattered Clouds
7:55 PM 44.6 °F 43.1 °F 41.0 °F 87% 29.91 in 10.0 mi NNW 3.5 mph - N/A   Scattered Clouds
8:15 PM 44.6 °F 43.1 °F 41.0 °F 87% 29.91 in 10.0 mi North 3.5 mph - N/A   Clear
8:35 PM 44.6 °F 43.1 °F 41.0 °F 87% 29.91 in 10.0 mi North 3.5 mph - N/A   Scattered Clouds
8:55 PM 44.6 °F - 41.0 °F 87% 29.90 in 10.0 mi Calm Calm - N/A   Mostly Cloudy
9:15 PM 44.6 °F 43.1 °F 41.0 °F 87% 29.90 in 10.0 mi NNW 3.5 mph - N/A   Scattered Clouds
9:35 PM 44.6 °F 43.1 °F 41.0 °F 87% 29.90 in 10.0 mi North 3.5 mph - N/A   Scattered Clouds
9:55 PM 42.8 °F - 39.2 °F 87% 29.90 in 10.0 mi Calm Calm - N/A   Mostly Cloudy
10:15 PM 44.6 °F 43.1 °F 41.0 °F 87% 29.89 in 10.0 mi NNE 3.5 mph - N/A   Scattered Clouds
10:35 PM 44.6 °F 43.1 °F 41.0 °F 87% 29.89 in 10.0 mi NNW 3.5 mph - N/A   Mostly Cloudy
10:55 PM 44.6 °F 43.1 °F 41.0 °F 87% 29.89 in 10.0 mi NNW 3.5 mph - N/A   Overcast
11:15 PM 44.6 °F 41.4 °F 41.0 °F 87% 29.88 in 10.0 mi NNE 5.8 mph - N/A   Overcast
11:35 PM 44.6 °F 42.2 °F 41.0 °F 87% 29.88 in 10.0 mi North 4.6 mph - N/A   Overcast
11:55 PM 44.6 °F 41.4 °F 41.0 °F 87% 29.88 in 10.0 mi NW 5.8 mph - N/A   Overcast